Torna al catalogo

STARLINK-11607

AttivoComunicazioniVLEO
NORAD 63140·PAYLOAD·🇺🇸 United States

Lanciato Mar 3, 2025 da Cape Canaveral Space Force Station

Loading…

Prossimi Passaggi (prossime 24 ore)

TLE

AggiornatoSource: CelesTrak SupGP

Epoca: Sep 14, 2026, 20:37 UTC

1 63140C 25043J   26257.85951389  .00048541  00000+0  37640-3 0  2579
2 63140  43.0005 190.1923 0001153 266.9378 201.0042 15.70854519    19

Traccia STARLINK-11607 in tempo reale con AllMySat

Download on the App Store